[[{"header":{"parameterUnit":"m.s-1","parameterCategory":1,"la1":30.2991,"la2":30.254,"lo1":-89.0895,"lo2":-89.0444,"dy":0.0017,"dx":0.0017,"nx":28,"ny":28,"refTime":"2024-02-19T09:00:00:Z","depth":0,"parameterNumber":2,"parameterNumberName":"U-component_of_WINDS"},"data":[0,0,0,0,0,0,0,0,0,0,0,0,0,0,0,0,0,0,0,0,0,0,0,0,0,0,0,0,0,0,0,0,0,0,0,0,0,0,0,0,0,0,0,0,0,0,0,0,0,0,0,0,0,0,0,0,0,0,-0.3576,-0.3577,0,-0.3634,-0.3634,-0.3635,-0.362,-0.3619,-0.3618,-0.3617,-0.3677,-0.3679,-0.3682,0,0,0,0,0,0,0,0,0,0,0,0,0,-0.3454,-0.3456,-0.3576,-0.3577,-0.3578,-0.3633,-0.3634,-0.3635,-0.3621,-0.3619,-0.3618,-0.3617,-0.3676,-0.3679,-0.3682,0,0,0,0,0,0,0,0,0,0,0,0,0,-0.3509,-0.3457,-0.3576,-0.3577,-0.3578,-0.3633,-0.3634,-0.3635,-0.3621,-0.3619,-0.3617,-0.3616,-0.3675,-0.3679,-0.3682,-0.3741,0,0,-0.3695,-0.3696,0,0,0,0,0,0,0,0,-0.3506,-0.3513,-0.3576,-0.3577,-0.3578,-0.3618,-0.3613,-0.3671,-0.3621,-0.3605,-0.3617,-0.3615,-0.3659,-0.3664,-0.3678,-0.3743,-0.3746,-0.3695,-0.3697,-0.3699,-0.37,0,0,0,0,0,0,0,-0.3502,-0.3511,-0.3599,-0.3577,-0.3578,-0.3575,-0.3581,-0.3624,-0.364,-0.3606,-0.3605,-0.3612,-0.3659,-0.3674,-0.3679,-0.3747,-0.3695,-0.3698,-0.3701,-0.3702,-0.3862,-0.3863,0,0,0,0,0,0,-0.3497,-0.3508,-0.3597,-0.3601,-0.3537,-0.3578,-0.3585,-0.3607,-0.364,-0.3643,-0.3613,-0.3611,-0.3669,-0.3675,-0.3682,-0.3752,-0.3699,-0.3703,-0.3705,-0.386,-0.3862,-0.3864,0,0,0,0,0,0,-0.3495,-0.3506,-0.3595,-0.3554,-0.3565,-0.3582,-0.3607,-0.3609,-0.3625,-0.3645,-0.3648,-0.3626,-0.3667,-0.3676,-0.3726,-0.3754,-0.3704,-0.3708,-0.3858,-0.386,-0.3863,-0.3893,0,0,0,0,0,0,-0.3491,-0.3505,-0.3527,-0.3555,-0.3567,-0.3638,-0.3609,-0.3611,-0.3631,-0.3629,-0.3658,-0.3662,-0.3667,-0.372,-0.373,-0.3758,-0.3711,-0.3855,-0.3859,-0.3862,-0.3889,-0.3896,-0.3902,0,0,0,0,0,-0.3487,-0.3534,-0.3528,-0.3539,-0.3596,-0.364,-0.3647,-0.3652,-0.3634,-0.3656,-0.3669,-0.3661,-0.3748,-0.3725,-0.3736,-0.3766,-0.3854,-0.3858,-0.3862,-0.3886,-0.3895,-0.3902,0,0,0,0,0,0,-0.351,-0.3537,-0.3532,-0.3589,-0.3612,-0.3637,-0.3666,-0.3661,-0.369,-0.3687,-0.3691,-0.3698,-0.3749,-0.3762,-0.3736,-0.3823,-0.3798,-0.3805,-0.3813,-0.3821,-0.3827,-0.3824,-0.3714,0,0,0,0,0,-0.3521,-0.3555,-0.3577,-0.3625,-0.3637,-0.3649,-0.3669,-0.367,-0.3695,-0.3705,-0.3722,-0.3746,-0.3779,-0.3801,-0.3832,-0.389,-0.3896,-0.3916,-0.3922,-0.3928,-0.3934,-0.3965,-0.3974,-0.3878,-0.3878,-0.3878,0,0,-0.3546,-0.3565,-0.3586,-0.363,-0.3648,-0.3683,-0.3658,-0.3696,-0.3722,-0.3711,-0.3759,-0.3772,-0.3799,-0.3853,-0.3878,-0.3866,-0.3961,-0.3933,-0.3937,-0.394,-0.397,-0.3979,-0.3987,-0.3881,-0.388,-0.388,0,0,-0.3608,-0.3626,-0.3668,-0.3686,-0.3714,-0.3721,-0.3731,-0.3757,-0.3766,-0.3814,-0.3806,-0.3836,-0.3893,-0.3912,-0.393,-0.3997,-0.3991,-0.4007,-0.4041,-0.4072,-0.4079,-0.4086,-0.411,-0.4119,-0.4013,-0.4013,-0.4013,0,-0.3635,-0.3687,-0.369,-0.3728,-0.3748,-0.3738,-0.378,-0.3798,-0.3835,-0.3848,-0.3834,-0.3904,-0.3922,-0.398,-0.3997,-0.4011,-0.4022,-0.4005,-0.4078,-0.4085,-0.4091,-0.4114,-0.4123,-0.4015,-0.4015,-0.4015,-0.4015,0,-0.3719,-0.3755,-0.3785,-0.382,-0.3843,-0.3883,-0.3892,-0.3914,-0.3913,-0.3922,-0.397,-0.3991,-0.4026,-0.404,-0.4039,-0.4098,-0.409,-0.4076,-0.4052,-0.4102,-0.4124,-0.4133,-0.4018,-0.4017,-0.4017,-0.4016,0,0,-0.38,-0.3834,-0.3845,-0.3861,-0.389,-0.3918,-0.3957,-0.399,-0.401,-0.4035,-0.4068,-0.4115,-0.4103,-0.4122,-0.4123,-0.415,-0.4202,-0.4134,-0.4134,-0.4146,-0.4268,-0.4278,-0.4289,-0.4197,-0.4199,-0.42,-0.4266,0,-0.3865,-0.3934,-0.3937,-0.4,-0.4033,-0.4023,-0.4057,-0.4078,-0.4087,-0.4117,-0.4126,-0.416,-0.4141,-0.4153,-0.4178,-0.419,-0.4227,-0.4186,-0.4228,-0.423,-0.4223,-0.43,-0.4312,-0.4373,-0.4274,-0.4276,-0.4277,0,-0.3951,-0.3978,-0.4044,-0.4068,-0.4082,-0.4112,-0.4143,-0.4171,-0.4194,-0.4199,-0.422,-0.4217,-0.4256,-0.4229,-0.4283,-0.4255,-0.4272,-0.428,-0.4283,-0.4288,-0.4257,-0.4308,-0.4393,-0.4402,-0.429,-0.4289,-0.4288,0,-0.4004,-0.4057,-0.4103,-0.4116,-0.4145,-0.4166,-0.4179,-0.4201,-0.422,-0.4247,-0.426,-0.429,-0.4308,-0.4331,-0.4336,-0.4316,-0.4391,-0.4364,-0.4396,-0.4396,-0.4414,-0.4413,-0.4503,-0.4423,-0.4423,-0.4422,-0.4422,0,-0.4077,-0.4118,-0.4127,-0.4156,-0.4201,-0.4203,-0.4248,-0.4259,-0.4278,-0.4308,-0.4301,-0.433,-0.4334,-0.4363,-0.4367,-0.4412,-0.4419,-0.4424,-0.4425,-0.4426,-0.4425,-0.4438,-0.4434,-0.4425,-0.4424,-0.4424,-0.4424,0,-0.4145,-0.4152,-0.4202,-0.4224,-0.423,-0.4263,-0.4281,-0.4308,-0.4316,-0.4354,-0.4363,-0.4375,-0.4409,-0.4416,-0.4457,-0.4459,-0.4512,-0.4508,-0.4504,-0.4504,-0.4536,-0.4533,-0.4639,-0.4653,-0.4563,-0.4564,-0.4564,0,-0.4192,-0.4223,-0.4248,-0.4268,-0.4281,-0.4313,-0.4333,-0.4335,-0.4356,-0.4384,-0.4408,-0.4441,-0.4468,-0.4523,-0.4535,-0.4566,-0.4563,-0.4597,-0.4568,-0.4567,-0.4564,-0.4563,-0.4566,-0.4604,-0.4605,-0.4606,-0.4606,0,-0.4275,-0.4276,-0.4305,-0.4335,-0.4359,-0.4383,-0.4405,-0.4422,-0.4427,-0.4451,-0.4485,-0.4506,-0.4546,-0.4579,-0.461,-0.4622,-0.4615,-0.4615,-0.4624,-0.4626,-0.4622,-0.4625,-0.4521,-0.4613,-0.4612,-0.4612,-0.4612,-0.4611,-0.4334,-0.4361,-0.4383,-0.4415,-0.4431,-0.4452,-0.4479,-0.4489,-0.4518,-0.4551,-0.455,-0.4588,-0.4609,-0.4649,-0.4663,-0.4693,-0.4682,-0.4695,-0.4698,-0.4702,-0.4705,-0.4617,-0.4698,-0.4698,-0.4698,-0.4697,-0.4697,0,-0.4417,-0.443,-0.4459,-0.4491,-0.4516,-0.4506,-0.4529,-0.4551,-0.4584,-0.4605,-0.4631,-0.467,-0.4701,-0.4715,-0.4746,-0.4767,-0.4764,-0.4775,-0.4774,-0.4777,-0.4713,-0.4702,-0.4776,-0.4776,-0.4776,-0.4776,-0.4776,-0.4776,-0.4463,-0.4509,-0.4512,-0.4565,-0.4578,-0.4615,-0.4629,-0.4648,-0.4664,-0.4708,-0.4734,-0.4743,-0.476,-0.4792,-0.482,-0.4823,-0.4835,-0.4847,-0.4849,-0.4789,-0.4781,-0.4774,-0.4764,-0.485,-0.485,-0.4911,-0.4911,-0.4912]},{"header":{"parameterUnit":"m.s-1","parameterCategory":1,"la1":30.2991,"la2":30.254,"lo1":-89.0895,"lo2":-89.0444,"dy":0.0017,"dx":0.0017,"nx":28,"ny":28,"refTime":"2024-02-19T09:00:00:Z","depth":0,"parameterNumber":3,"parameterNumberName":"V-component_of_WINDS"},"data":[0,0,0,0,0,0,0,0,0,0,0,0,0,0,0,0,0,0,0,0,0,0,0,0,0,0,0,0,0,0,0,0,0,0,0,0,0,0,0,0,0,0,0,0,0,0,0,0,0,0,0,0,0,0,0,0,0,0,-4.1972,-4.1974,0,-4.2113,-4.2114,-4.2116,-4.2084,-4.2081,-4.2079,-4.2076,-4.2215,-4.2221,-4.2227,0,0,0,0,0,0,0,0,0,0,0,0,0,-4.1672,-4.1677,-4.1972,-4.1974,-4.1976,-4.2113,-4.2114,-4.2116,-4.2084,-4.2081,-4.2078,-4.2075,-4.2213,-4.222,-4.2228,0,0,0,0,0,0,0,0,0,0,0,0,0,-4.1806,-4.1679,-4.1972,-4.1976,-4.1978,-4.2112,-4.2114,-4.2117,-4.2085,-4.2081,-4.2077,-4.2073,-4.2211,-4.222,-4.2229,-4.2365,0,0,-4.2257,-4.2261,0,0,0,0,0,0,0,0,-4.1799,-4.1817,-4.1974,-4.1976,-4.1979,-4.2077,-4.2059,-4.22,-4.2086,-4.2044,-4.2076,-4.2071,-4.2172,-4.2184,-4.2219,-4.2372,-4.2378,-4.2258,-4.2263,-4.2267,-4.227,0,0,0,0,0,0,0,-4.1789,-4.1811,-4.2028,-4.1976,-4.1979,-4.197,-4.1985,-4.2086,-4.2129,-4.2048,-4.2046,-4.2063,-4.2172,-4.221,-4.2222,-4.238,-4.2258,-4.2266,-4.2272,-4.2275,-4.2651,-4.2655,0,0,0,0,0,0,-4.1779,-4.1803,-4.2023,-4.2032,-4.1877,-4.1979,-4.1995,-4.2049,-4.2127,-4.2136,-4.2066,-4.2061,-4.2196,-4.2211,-4.2227,-4.2392,-4.2267,-4.2276,-4.2281,-4.2647,-4.2652,-4.2657,0,0,0,0,0,0,-4.1772,-4.1799,-4.2018,-4.1917,-4.1944,-4.1988,-4.2049,-4.2054,-4.2092,-4.2142,-4.2148,-4.2097,-4.2194,-4.2214,-4.2331,-4.2396,-4.228,-4.2289,-4.2641,-4.2648,-4.2654,-4.2723,0,0,0,0,0,0,-4.1764,-4.1797,-4.185,-4.1919,-4.195,-4.2122,-4.2053,-4.206,-4.2109,-4.2103,-4.2173,-4.218,-4.2192,-4.2318,-4.2341,-4.2407,-4.2296,-4.2636,-4.2644,-4.2652,-4.2715,-4.2731,-4.2745,0,0,0,0,0,-4.1753,-4.1863,-4.1853,-4.188,-4.2018,-4.2125,-4.2143,-4.2156,-4.2114,-4.2167,-4.2199,-4.2178,-4.2385,-4.233,-4.2356,-4.2425,-4.2632,-4.2642,-4.2652,-4.2708,-4.2728,-4.2744,0,0,0,0,0,0,-4.1799,-4.1872,-4.1862,-4.1997,-4.2056,-4.212,-4.2188,-4.2176,-4.2247,-4.2238,-4.225,-4.2266,-4.2386,-4.2417,-4.2354,-4.2561,-4.2502,-4.2518,-4.2536,-4.2555,-4.257,-4.256,-4.2304,0,0,0,0,0,-4.1825,-4.1908,-4.1966,-4.208,-4.211,-4.2144,-4.2191,-4.2196,-4.2256,-4.228,-4.2321,-4.2379,-4.2456,-4.2508,-4.2582,-4.2719,-4.2733,-4.278,-4.2794,-4.2806,-4.2819,-4.2893,-4.2914,-4.2689,-4.2689,-4.2689,0,0,-4.1879,-4.1929,-4.1981,-4.2091,-4.2136,-4.222,-4.2165,-4.2256,-4.2318,-4.2294,-4.2408,-4.2439,-4.2504,-4.2632,-4.269,-4.2662,-4.2885,-4.2819,-4.2828,-4.2835,-4.2906,-4.2927,-4.2946,-4.2696,-4.2695,-4.2694,0,0,-4.2021,-4.2068,-4.2168,-4.2215,-4.2286,-4.2307,-4.2331,-4.2398,-4.2418,-4.2533,-4.2517,-4.2589,-4.2724,-4.2771,-4.2812,-4.2972,-4.2955,-4.2996,-4.3073,-4.3145,-4.3163,-4.3178,-4.3235,-4.3255,-4.3009,-4.3009,-4.3009,0,-4.208,-4.2207,-4.222,-4.2313,-4.2361,-4.2345,-4.2445,-4.249,-4.258,-4.2613,-4.2581,-4.2749,-4.2792,-4.293,-4.2969,-4.3003,-4.303,-4.2988,-4.3159,-4.3175,-4.319,-4.3244,-4.3265,-4.3013,-4.3013,-4.3012,-4.3012,0,-4.2274,-4.2363,-4.2435,-4.2524,-4.2581,-4.2677,-4.2703,-4.2758,-4.2758,-4.2783,-4.2899,-4.295,-4.3034,-4.3068,-4.3068,-4.3206,-4.3186,-4.3157,-4.3097,-4.3216,-4.3267,-4.3287,-4.302,-4.3018,-4.3017,-4.3016,0,0,-4.2449,-4.2545,-4.2571,-4.2612,-4.2688,-4.2756,-4.285,-4.2935,-4.2981,-4.3044,-4.3123,-4.3237,-4.321,-4.3258,-4.3263,-4.3326,-4.3448,-4.3289,-4.329,-4.3316,-4.3603,-4.3624,-4.3648,-4.3438,-4.3442,-4.3445,-4.3597,0,-4.2598,-4.2767,-4.2781,-4.2932,-4.3013,-4.2999,-4.3081,-4.3136,-4.3161,-4.3232,-4.326,-4.3341,-4.3299,-4.3328,-4.339,-4.342,-4.3506,-4.341,-4.351,-4.3513,-4.3494,-4.3675,-4.3698,-4.3839,-4.3617,-4.362,-4.3623,0,-4.2794,-4.2864,-4.3024,-4.3089,-4.3123,-4.3197,-4.3275,-4.3344,-4.3405,-4.3419,-4.3472,-4.3469,-4.3564,-4.3502,-4.3633,-4.3567,-4.3609,-4.363,-4.3636,-4.3645,-4.3575,-4.3688,-4.3885,-4.3906,-4.3654,-4.3652,-4.3649,0,-4.2904,-4.3039,-4.3152,-4.3187,-4.3265,-4.3317,-4.3352,-4.341,-4.346,-4.3527,-4.3559,-4.3636,-4.3678,-4.3737,-4.3754,-4.3708,-4.3885,-4.3824,-4.3898,-4.3898,-4.3936,-4.3933,-4.4141,-4.3963,-4.3963,-4.3963,-4.3962,0,-4.3069,-4.3167,-4.3203,-4.3272,-4.3381,-4.3396,-4.3503,-4.3534,-4.3586,-4.366,-4.3651,-4.372,-4.3739,-4.3811,-4.3825,-4.3931,-4.395,-4.3963,-4.3965,-4.3964,-4.3962,-4.3991,-4.3981,-4.3968,-4.3967,-4.3966,-4.3965,0,-4.3211,-4.3239,-4.3361,-4.3426,-4.3444,-4.3522,-4.3576,-4.3642,-4.3666,-4.376,-4.3783,-4.3821,-4.3905,-4.3928,-4.4029,-4.4038,-4.4163,-4.4156,-4.4143,-4.4142,-4.4215,-4.4208,-4.4448,-4.448,-4.4282,-4.4284,-4.4285,0,-4.3314,-4.3389,-4.3462,-4.3512,-4.355,-4.363,-4.3681,-4.3698,-4.3751,-4.3826,-4.3883,-4.3967,-4.4034,-4.417,-4.4205,-4.4282,-4.4277,-4.4356,-4.4288,-4.4284,-4.4277,-4.4272,-4.428,-4.4368,-4.437,-4.4372,-4.4373,0,-4.3493,-4.3503,-4.3578,-4.3657,-4.3719,-4.3782,-4.3842,-4.3883,-4.3908,-4.3968,-4.4055,-4.4108,-4.4212,-4.4294,-4.4372,-4.4406,-4.4394,-4.4395,-4.4416,-4.4415,-4.4404,-4.441,-4.4177,-4.4389,-4.4387,-4.4386,-4.4385,-4.4385,-4.3618,-4.3684,-4.3746,-4.3829,-4.3877,-4.3934,-4.3999,-4.4032,-4.4105,-4.4192,-4.4197,-4.4292,-4.435,-4.4453,-4.4492,-4.4565,-4.4541,-4.4571,-4.4579,-4.4586,-4.4592,-4.4392,-4.4579,-4.4578,-4.4578,-4.4577,-4.4577,0,-4.3797,-4.3836,-4.3912,-4.3998,-4.4063,-4.4048,-4.4113,-4.4168,-4.4252,-4.4309,-4.4376,-4.4476,-4.4556,-4.4598,-4.4677,-4.4727,-4.4724,-4.4747,-4.4744,-4.4751,-4.4609,-4.4583,-4.4749,-4.4749,-4.4749,-4.4749,-4.4749,-4.4749,-4.3897,-4.4008,-4.4026,-4.416,-4.4198,-4.4292,-4.433,-4.4382,-4.4427,-4.454,-4.4607,-4.4634,-4.4684,-4.4767,-4.484,-4.4849,-4.4879,-4.4906,-4.4913,-4.4779,-4.4761,-4.4745,-4.472,-4.4912,-4.4912,-4.5048,-4.505,-4.5051]}]]